Wind_Speed
24 30 28 25 26 21 25 30 35 36 35 33 30 28 25 23 19 18 17 16 15 15 14 12 12 12 11 11 10 11 11 14 14 11 10 8 6 5 6 4 4 6 7
22 26 33 32 31 29 23 30 35 40 36 36 34 30 26 23 20 20 19 18 17 16 15 14 13 13 12 12 11 10 12 13 14 9 7 7 5 3 4 3 4 5 5
27 24 30 34 33 33 29 35 39 38 38 37 35 31 26 26 26 24 21 20 19 18 16 15 14 13 13 13 13 12 11 11 13 15 7 6 4 7 4 3 2 2 3
27 29 26 35 38 37 29 35 39 41 41 41 40 37 36 35 31 25 22 23 21 20 19 17 16 15 14 13 12 12 10 11 10 12 9 7 9 7 7 5 2 1 1
30 29 32 33 35 38 40 37 42 43 45 44 45 41 37 33 28 27 26 24 23 22 20 19 18 17 15 14 13 13 12 11 11 9 10 9 9 11 9 11 8 2 3
30 32 31 29 35 35 38 37 39 45 46 47 48 45 41 35 32 29 29 27 26 24 23 21 20 18 16 15 14 13 12 10 9 9 10 9 9 9 11 13 9 8 5
5 17 31 33 32 36 37 39 37 43 48 50 51 48 44 40 35 32 30 29 29 27 25 24 22 20 18 17 15 13 12 11 10 9 8 7 6 6 7 9 7 8 5
10 11 12 25 27 32 35 37 39 45 49 50 49 50 48 45 35 30 32 30 29 27 25 25 22 21 19 18 16 15 13 11 10 8 7 6 6 5 5 5 5 4 5
5 8 9 8 13 24 29 35 38 42 42 45 49 50 48 47 39 40 36 32 29 28 25 25 24 22 20 18 16 15 13 11 10 8 7 6 6 5 5 4 4 4 5
8 5 9 9 11 17 21 29 34 39 44 45 47 49 49 47 43 40 37 33 31 30 30 29 26 24 22 20 17 15 12 11 9 8 7 6 6 5 4 4 4 5 6
10 8 7 10 17 21 20 27 30 35 40 43 43 45 46 49 45 41 37 35 32 32 32 30 28 25 23 21 17 14 12 11 10 9 7 6 6 5 4 5 6 7 8
13 15 14 13 14 14 23 21 27 30 36 37 39 40 44 47 44 42 40 37 36 34 33 32 29 26 23 21 18 15 13 11 9 9 7 7 6 6 7 7 8 9 10
15 20 19 17 15 14 17 22 26 27 32 36 38 37 40 42 45 44 42 40 36 36 36 34 30 26 23 20 16 15 12 11 10 9 7 7 7 8 8 8 10 11 11
27 23 22 20 18 16 13 22 21 24 30 33 37 38 40 41 47 45 43 41 40 39 38 31 26 23 22 19 17 15 14 13 12 10 8 7 8 9 10 11 11 12 13
29 23 24 22 20 19 12 16 21 23 28 31 34 36 41 46 50 48 49 42 38 36 28 24 22 24 22 19 17 15 15 14 12 9 8 8 10 10 11 11 12 13 14
28 24 25 23 21 21 14 17 18 22 25 28 32 36 40 45 46 42 40 41 43 35 31 32 29 23 19 18 17 18 16 13 11 9 7 9 11 10 11 11 10 11 12
22 21 22 25 23 22 17 19 20 24 28 30 34 38 40 43 42 43 40 36 40 34 29 26 28 26 25 23 20 17 13 10 9 7 8 10 11 11 10 9 10 9 9
26 29 22 22 23 21 17 20 23 26 32 36 40 42 43 44 41 39 40 37 30 27 31 29 27 26 24 21 16 13 11 9 8 8 8 9 9 10 8 8 8 8 9
31 27 21 22 24 21 17 23 26 29 34 37 39 40 40 41 41 40 37 34 31 33 31 30 28 24 23 18 14 11 10 9 8 7 7 7 8 9 9 9 9 10 10
25 22 18 15 20 19 16 26 29 32 35 37 38 37 37 39 39 38 36 33 34 34 31 28 23 21 18 14 10 8 9 8 7 6 6 6 8 9 9 9 9 11 12
22 17 9 14 19 18 19 28 31 33 36 39 39 39 40 39 37 36 35 36 34 34 31 25 21 18 12 11 10 8 9 10 7 5 5 6 9 9 7 7 11 12 13
19 12 8 13 17 19 22 28 32 35 36 38 39 39 40 41 40 38 35 33 33 28 25 22 17 14 12 11 10 11 11 7 5 6 7 8 9 8 9 9 10 10 14
13 10 8 10 13 15 20 28 33 36 37 38 40 41 40 41 41 40 37 35 30 25 21 17 16 13 11 10 11 9 7 5 6 7 7 8 8 8 9 9 10 12 15
9 9 9 10 12 15 17 23 27 33 38 41 45 44 44 38 35 35 32 28 26 23 20 17 14 13 12 10 8 6 5 5 5 6 5 6 7 7 5 8 12 14 16
6 5 5 9 13 17 22 24 29 31 34 40 39 38 39 37 35 32 29 25 19 15 15 13 12 12 11 9 8 7 8 7 7 7 7 7 7 6 9 12 14 16 17
2 5 10 15 15 17 20 25 29 31 32 38 39 36 39 37 33 29 26 19 15 13 12 8 10 11 9 8 8 8 7 6 7 6 5 5 7 10 13 14 15 12 11
Wind_Direction
233 214 219 220 207 204 207 207 200 205 206 205 204 207 204 204 205 209 209 207 201 201 199 194 190 182 177 172 165 159 156 152 152 151 136 124 124 94 125 101 58 65 77
239 227 212 212 213 207 202 202 202 208 210 210 211 214 209 210 214 214 212 210 205 204 203 200 194 192 184 181 173 172 161 161 158 143 127 135 134 104 137 137 88 73 60
236 235 211 213 213 212 209 203 201 210 212 212 210 209 207 210 211 214 211 212 209 207 205 202 200 198 189 187 183 179 169 169 174 169 164 164 167 155 138 134 119 66 47
238 236 222 214 217 221 218 211 207 212 210 211 210 212 213 212 219 219 213 214 210 207 206 205 202 201 196 192 187 184 180 173 171 175 192 184 167 173 159 160 158 17 26
241 239 239 219 227 230 220 215 210 212 213 213 213 207 213 219 222 212 213 215 214 210 209 207 204 203 199 194 191 186 185 180 182 174 169 162 172 176 159 165 156 165 323
230 230 234 241 221 232 231 220 212 214 217 215 213 213 213 210 212 213 213 209 212 210 208 207 205 203 201 196 194 190 189 185 185 181 180 178 178 171 168 155 172 187 217
303 235 225 224 228 227 223 226 218 216 220 218 215 215 215 212 209 210 214 213 212 211 208 207 204 204 199 198 196 194 190 187 191 188 186 182 186 183 177 182 186 182 212
320 311 344 221 224 216 227 223 223 217 221 220 218 218 218 212 207 216 216 212 212 213 209 207 203 204 200 198 198 196 193 191 198 197 193 192 197 195 198 198 201 182 174
339 318 313 269 221 216 222 236 233 223 226 226 221 219 218 216 212 205 208 209 210 205 205 207 204 202 201 202 201 199 197 199 201 199 207 204 210 217 222 228 231 223 183
47 7 285 271 257 242 240 235 236 232 228 229 225 221 219 216 213 208 205 205 204 203 200 200 202 201 200 200 200 200 201 206 201 204 213 217 223 227 235 244 251 251 245
2 350 315 282 258 251 233 232 230 228 229 230 226 223 223 217 213 211 206 204 203 200 198 196 196 197 198 198 199 200 204 204 204 209 214 221 232 234 244 261 272 274 272
328 334 325 308 292 254 227 234 235 221 230 232 233 225 231 216 209 209 204 203 199 199 195 192 191 192 193 196 197 197 202 207 213 219 210 210 223 247 264 271 277 280 281
335 318 311 310 299 285 231 218 233 228 228 228 229 224 219 216 208 205 200 196 196 192 188 188 186 185 192 193 192 198 204 207 203 204 204 224 242 257 270 280 283 287 289
317 314 298 303 295 290 253 219 220 224 224 227 223 222 218 215 206 199 196 188 188 186 184 179 178 184 192 189 191 197 201 195 194 203 219 243 263 275 284 285 287 289 290
308 306 296 295 294 287 249 232 219 224 225 224 221 216 213 208 202 195 196 179 183 179 182 183 187 187 188 190 191 192 195 193 200 211 230 253 265 273 279 284 287 283 287
296 295 293 280 286 284 261 227 226 226 223 223 220 215 210 205 198 189 188 177 187 181 182 188 185 190 194 197 192 190 194 196 206 217 241 257 271 277 283 290 289 292 296
323 322 326 289 276 277 263 231 225 218 212 211 208 204 201 196 187 186 183 181 176 168 176 183 185 185 183 179 183 189 197 207 221 241 254 269 277 287 296 295 297 300 308
324 324 304 292 261 263 250 223 218 211 205 198 196 196 194 187 182 177 173 177 166 170 178 176 178 170 175 178 182 190 207 211 232 244 254 260 272 285 287 289 294 295 300
324 318 305 286 246 250 242 215 209 205 201 196 192 189 187 178 172 174 176 178 175 172 174 168 177 171 176 175 181 198 217 225 232 243 253 260 271 275 290 296 292 293 296
328 328 319 240 233 231 225 212 205 201 195 192 187 184 180 177 174 176 173 179 175 171 170 170 167 173 178 177 189 212 227 225 229 240 252 264 262 264 279 297 298 299 304
330 324 286 227 213 218 207 205 203 196 193 188 186 183 180 180 181 179 174 171 165 169 163 167 167 174 177 188 200 215 225 230 220 229 253 260 274 285 296 295 299 304 303
329 325 268 230 215 222 214 202 198 194 191 186 180 176 175 177 176 172 164 165 167 162 159 170 170 178 186 190 203 216 218 217 222 230 243 258 265 290 298 298 304 295 291
316 297 262 233 221 225 220 208 204 195 189 184 178 174 170 164 164 162 162 166 166 165 167 171 176 182 188 199 198 189 200 217 223 235 252 260 273 292 304 297 290 299 304
318 288 258 239 208 194 192 201 200 195 184 177 173 172 169 160 155 162 166 169 168 169 174 176 181 185 191 187 182 185 189 200 207 223 245 273 284 298 307 308 302 296 295
312 285 225 185 187 186 177 173 164 157 156 163 162 158 156 155 160 162 162 162 160 170 171 174 187 191 183 186 198 209 219 225 229 253 264 268 292 302 303 297 297 296 291
81 165 180 179 171 177 176 169 162 157 147 144 145 150 154 156 155 155 149 149 159 163 164 173 189 189 199 203 206 207 214 230 243 254 267 282 294 297 296 299 300 302 313
Height
1461 1464 1466 1471 1474 1476 1483 1491 1497 1501 1505 1509 1513 1517 1521 1524 1527 1530 1533 1536 1539 1541 1543 1545 1547 1548 1549 1551 1552 1554 1553 1556 1558 1560 1561 1563 1564 1566 1566 1566 1565 1565 1565
1456 1459 1461 1465 1469 1473 1472 1479 1490 1496 1500 1503 1507 1512 1518 1522 1525 1527 1530 1533 1537 1539 1542 1544 1545 1547 1547 1550 1551 1553 1553 1554 1556 1559 1561 1562 1565 1565 1566 1566 1566 1566 1565
1451 1455 1456 1458 1463 1466 1470 1473 1477 1483 1493 1498 1503 1509 1515 1518 1520 1522 1527 1530 1534 1536 1539 1542 1544 1546 1547 1548 1550 1551 1552 1554 1555 1556 1559 1560 1561 1563 1565 1566 1566 1566 1565
1449 1452 1453 1452 1456 1461 1465 1470 1473 1478 1483 1488 1493 1499 1503 1508 1512 1518 1523 1527 1530 1533 1536 1539 1542 1544 1546 1548 1549 1551 1551 1553 1555 1555 1556 1557 1558 1560 1564 1565 1566 1566 1566
1443 1447 1449 1449 1451 1456 1459 1463 1467 1469 1476 1480 1488 1488 1494 1504 1510 1513 1517 1521 1526 1530 1532 1535 1538 1542 1544 1546 1549 1549 1550 1551 1553 1554 1555 1556 1557 1558 1559 1561 1564 1565 1565
1437 1441 1445 1448 1448 1452 1454 1459 1462 1465 1470 1476 1481 1482 1488 1492 1500 1507 1512 1514 1521 1525 1528 1532 1534 1539 1541 1544 1546 1548 1549 1550 1552 1552 1553 1553 1555 1556 1557 1559 1561 1563 1564
1433 1435 1436 1440 1443 1446 1450 1454 1459 1460 1465 1470 1474 1477 1482 1485 1488 1497 1505 1509 1515 1520 1523 1528 1531 1536 1538 1541 1544 1545 1547 1549 1551 1552 1552 1552 1554 1556 1557 1558 1559 1561 1562
1432 1433 1434 1434 1437 1441 1445 1449 1451 1456 1459 1463 1466 1471 1477 1481 1480 1487 1499 1504 1509 1515 1519 1525 1527 1534 1535 1538 1541 1543 1545 1546 1549 1550 1551 1552 1554 1554 1556 1556 1558 1559 1560
1434 1434 1435 1437 1439 1441 1442 1445 1447 1450 1452 1455 1460 1465 1471 1477 1475 1481 1488 1495 1502 1508 1513 1520 1524 1529 1532 1535 1539 1541 1542 1544 1547 1548 1549 1551 1552 1553 1554 1555 1556 1557 1557
1435 1436 1436 1436 1437 1438 1440 1442 1444 1446 1446 1449 1454 1459 1463 1469 1473 1479 1480 1488 1496 1502 1504 1512 1517 1522 1527 1532 1536 1538 1539 1543 1544 1545 1547 1549 1551 1552 1553 1553 1554 1554 1555
1434 1435 1435 1434 1434 1433 1436 1439 1440 1441 1442 1445 1448 1452 1457 1462 1467 1473 1477 1483 1489 1496 1501 1504 1510 1518 1523 1527 1532 1533 1537 1541 1541 1543 1545 1547 1550 1550 1550 1551 1552 1552 1552
1430 1431 1432 1431 1429 1429 1430 1432 1434 1437 1438 1439 1444 1447 1449 1456 1460 1467 1471 1476 1482 1490 1494 1499 1504 1511 1518 1524 1527 1529 1534 1537 1539 1541 1542 1545 1546 1548 1548 1548 1549 1548 1548
1429 1427 1426 1426 1425 1424 1425 1427 1429 1432 1434 1435 1438 1442 1447 1451 1454 1462 1466 1470 1477 1483 1489 1494 1499 1505 1514 1519 1521 1528 1531 1533 1535 1539 1541 1544 1544 1544 1546 1546 1545 1545 1544
1425 1424 1422 1421 1420 1419 1420 1421 1424 1427 1429 1431 1434 1437 1442 1444 1447 1453 1458 1463 1472 1480 1487 1490 1494 1500 1511 1513 1518 1522 1526 1529 1532 1535 1538 1540 1542 1543 1543 1542 1542 1541 1540
1419 1420 1417 1416 1414 1414 1415 1416 1419 1422 1425 1427 1431 1433 1436 1440 1443 1450 1454 1451 1472 1477 1480 1485 1493 1499 1507 1512 1513 1518 1523 1525 1530 1531 1533 1536 1539 1539 1540 1539 1539 1538 1537
1416 1415 1413 1411 1410 1409 1410 1413 1415 1417 1421 1424 1428 1430 1433 1436 1443 1447 1460 1451 1465 1467 1475 1480 1485 1498 1505 1509 1511 1517 1521 1523 1526 1527 1527 1531 1535 1536 1535 1535 1534 1534 1532
1413 1411 1411 1407 1405 1404 1406 1409 1412 1414 1415 1420 1423 1426 1430 1435 1440 1446 1450 1460 1458 1462 1476 1485 1489 1493 1502 1506 1510 1515 1519 1520 1523 1523 1524 1527 1529 1530 1530 1530 1530 1529 1528
1409 1407 1405 1404 1400 1399 1402 1406 1407 1410 1413 1415 1419 1423 1427 1432 1439 1446 1453 1466 1452 1464 1475 1482 1493 1492 1501 1504 1508 1512 1517 1516 1519 1521 1522 1524 1525 1526 1528 1528 1527 1525 1525
1408 1404 1400 1398 1396 1396 1398 1402 1404 1407 1410 1413 1416 1423 1427 1431 1437 1447 1453 1459 1458 1467 1478 1477 1492 1489 1500 1500 1503 1509 1514 1513 1515 1518 1520 1520 1521 1523 1525 1525 1522 1522 1521
1405 1400 1396 1394 1393 1394 1396 1400 1401 1405 1407 1412 1417 1423 1430 1433 1438 1444 1448 1455 1459 1465 1474 1484 1484 1492 1498 1499 1501 1506 1512 1512 1513 1513 1516 1516 1521 1522 1520 1518 1519 1519 1518
1403 1400 1398 1396 1394 1394 1397 1400 1401 1403 1407 1410 1415 1420 1426 1432 1437 1442 1448 1456 1458 1469 1470 1481 1485 1492 1493 1497 1499 1504 1511 1511 1507 1508 1512 1514 1518 1519 1514 1514 1517 1516 1514
1403 1401 1398 1396 1396 1397 1398 1399 1402 1402 1406 1409 1413 1419 1425 1429 1437 1442 1451 1462 1466 1469 1470 1481 1483 1488 1493 1494 1498 1503 1508 1505 1503 1506 1510 1512 1514 1514 1511 1512 1513 1513 1511
1402 1400 1398 1397 1397 1397 1398 1399 1401 1402 1403 1408 1412 1418 1426 1432 1439 1445 1453 1461 1465 1468 1474 1478 1484 1488 1491 1495 1498 1499 1499 1500 1504 1505 1507 1510 1510 1508 1508 1509 1509 1508 1506
1401 1400 1399 1399 1399 1398 1399 1400 1401 1406 1403 1407 1411 1417 1423 1432 1440 1449 1455 1459 1463 1468 1472 1477 1481 1486 1491 1493 1493 1495 1495 1500 1501 1502 1505 1506 1506 1506 1505 1505 1504 1503 1502
1401 1400 1400 1399 1400 1399 1399 1401 1402 1407 1409 1406 1413 1420 1425 1435 1443 1449 1455 1460 1465 1469 1472 1476 1481 1486 1487 1489 1491 1493 1496 1498 1499 1501 1502 1503 1503 1502 1501 1501 1500 1499 1498
1401 1399 1399 1399 1400 1401 1402 1404 1407 1409 1412 1410 1414 1424 1430 1438 1444 1449 1454 1460 1464 1469 1473 1477 1481 1483 1484 1487 1490 1492 1494 1495 1497 1498 1499 1499 1499 1499 1498 1497 1496 1494 1493